Regional Weather Roundup
Issued by NWS

Home | Current Version | Previous Version | Text Only | Print | Product List | Glossary Off
Versions: 1 2 3 4 5 6 7 8 9 10 11 12 13 14 15 16 17 18 19 20 21 22 23 24 25 26 27 28 29 30 31 32 33 34 35 36 37 38 39 40 41 42 43 44 45 46 47 48 49 50

398
ASUS43 KMPX 170310
RWRMN
WEATHER ROUNDUP FOR MINNESOTA
NATIONAL WEATHER SERVICE TWIN CITIES/CHANHASSEN MN
1000 PM CDT MON OCT 16 2017


NOTE: "FAIR" INDICATES FEW OR NO CLOUDS BELOW 12,000 FEET WITH NO
SIGNIFICANT WEATHER AND/OR OBSTRUCTIONS TO VISIBILITY. N/A MEANS
CURRENT SKY AND/OR WEATHER CONDITIONS ARE NOT AVAILABLE.

MNZ060>063-068>070-170400-
   Twin Cities Metro

CITY           SKY/WX    TMP DP  RH WIND       PRES   REMARKS
TWIN CITIES    PTCLDY    60  38  43 SW10      29.96F
ST PAUL        CLEAR     54  40  59 SE8       29.97F
CRYSTAL        CLEAR     57  35  43 S8        29.95S
BLAINE         CLEAR     59  37  44 S8        29.95R
LAKEVILLE      CLEAR     54  37  54 CALM      29.97F
EDEN PRAIRIE   CLEAR     56  38  50 SW9       29.95F
SOUTH ST PAUL  CLEAR     56  37  49 S7        29.96F
LAKE ELMO      FAIR      52  37  58 S7        29.98S
$$
MNZ001>005-007-008-013>017-022>024-027-028-170400-
   Northwest Minnesota

CITY           SKY/WX    TMP DP  RH WIND       PRES   REMARKS
BEMIDJI        CLOUDY    52  37  56 W7        29.87S
HALLOCK        PTCLDY    48  30  49 W5        29.85R
ROSEAU           N/A     52  39  62 SW7       29.83R
WARROAD        CLOUDY    54  39  58 W9        29.83R
THIEF RVR FALL CLOUDY    51  35  54 W9        29.88R
CROOKSTON      CLOUDY    48  36  61 W7        29.88S
FOSSTON        CLOUDY    43  32  65 CALM      29.89R
DETROIT LAKES  CLOUDY    55  41  58 SW6       29.92S
MOORHEAD       CLOUDY    54  41  62 SW6       29.91R
PARK RAPIDS    CLOUDY    48  39  71 SW7       29.89R
MAHNOMEN       FAIR      49  36  62 SW3       29.89S
$$
MNZ006-009>011-018-025>026-170400-
   North Central Minnesota

CITY           SKY/WX    TMP DP  RH WIND       PRES   REMARKS
BAUDETTE       CLOUDY    53  36  52 W8        29.82R
FLAG ISLAND    CLEAR     55  36  47 W14       29.78R
INTL FALLS     CLOUDY    48  36  63 SW6       29.81R
WASKISH        CLOUDY    54  43  66 SW8       29.84R
BIG FORK       CLOUDY    48  39  71 SW3       29.85S
LONGVILLE      CLOUDY    52  39  62 SW5       29.88S
GRAND RAPIDS   PTCLDY    55  38  52 S7        29.88S
CRANE LAKE     PTCLDY    52  36  54 S7        29.83S
ORR            CLOUDY    50  34  53 SW3       29.81S
COOK           CLOUDY    54  37  54 SW7       29.84S
WALKER         FAIR      55  38  52 W6        29.88R
$$
MNZ012-019>021-037-170400-
   Northeast Minnesota

CITY           SKY/WX    TMP DP  RH WIND       PRES   REMARKS
DULUTH         CLEAR     50  37  61 SW13      29.89S
ELY            PTCLDY    52  34  50 SW3       29.83F
HIBBING        CLOUDY    47  35  63 SW3       29.85F
EVELETH        CLOUDY    50  32  50 SW7       29.87F
DULUTH HARBOR  CLEAR     55  39  54 SW10      29.89F
TWO HARBORS    CLOUDY    54  39  58 SW7       29.86F
SILVER BAY     CLEAR     54  37  54 SW7       29.85F
GRAND MARAIS     N/A     45  43  93 CALM      29.85F
G MARAIS ARPRT CLEAR     46  37  71 S7        29.86F
$$
MNZ029>031-032-039>041-046>048-054>057-064-170400-
   West Central Minnesota

CITY           SKY/WX    TMP DP  RH WIND       PRES   REMARKS
FERGUS FALLS   CLEAR     52  41  66 SW3       29.94R
WHEATON        CLEAR     54  41  62 SW7       29.95S
MORRIS         CLEAR     54  41  62 SW7       29.93S
ALEXANDRIA     CLEAR     52  41  66 SW8       29.95S
ELBOW LAKE     FAIR      47  41  79 W8        29.93S
WADENA         CLEAR     52  39  62 SW7       29.91S
GLENWOOD       CLEAR     46  39  76 SW8       29.95S
APPLETON       CLEAR     52  39  62 SW6       29.95S
BENSON         CLEAR     52  39  62 W6        29.96S
ORTONVILLE     CLEAR     55  41  58 NW3       29.95S
MADISON        CLEAR     55  43  62 W6        29.96S
WILLMAR        FAIR      52  39  62 SW5       29.97S
$$
MNZ033>034-036-042>043-049>051-058-059-170400-
   Central Minnesota

CITY           SKY/WX    TMP DP  RH WIND       PRES   REMARKS
ST CLOUD       CLEAR     50  39  66 SW6       29.95R
SAUK CENTRE    FAIR      52  40  63 SW7       29.94S
PAYNESVILLE    CLEAR     49  40  70 W5        29.96R
AITKIN         CLEAR     54  37  54 SW5       29.89R
PINE RIVER     CLOUDY    43  36  75 CALM      29.93S
BRAINERD       CLEAR     50  38  63 SW5       29.91S
STAPLES        CLEAR     52  37  58 SW6       29.91S
LONG PRAIRIE   FAIR      46  37  71 S6        29.94S
LITTLE FALLS   CLEAR     48  32  53 CALM      29.93S
LITCHFIELD     CLEAR     55  41  58 SW3       29.96R
BUFFALO        CLEAR     54  37  53 S3        29.96S
MAPLE LAKE     CLEAR     55  40  58 SW3       29.95S
HUTCHINSON     PTCLDY    52  40  63 CALM      29.97S
$$
MNZ037-044-045-052-053-170400-
   East Central Minnesota

CITY           SKY/WX    TMP DP  RH WIND       PRES   REMARKS
PRINCETON      CLEAR     54  39  58 S3        29.94R
MORA           CLEAR     43  37  81 CALM      29.95R
CAMBRIDGE      CLEAR     54  39  58 S3        29.94S
RUSH CITY      MOCLDY    49  38  65 S3        29.94R
MOOSE LAKE     CLEAR     46  36  66 CALM      29.89F
HINCKLEY       FAIR      43  37  81 CALM      29.93S
CLOQUET        CLEAR     52  34  50 SW7       29.89S
MCGREGOR       CLEAR     52  37  58 SW6       29.90R
$$
MNZ071>073-080-081-089-090-097-098-170400-
   Southwest Minnesota

CITY           SKY/WX    TMP DP  RH WIND       PRES   REMARKS
MONTEVIDEO     CLEAR     54  37  54 W3        29.96S
GRANITE FALLS  CLEAR     50  41  70 SW6       29.98R
CANBY          CLEAR     56  42  58 SW6       29.98S
MARSHALL       CLEAR     53  39  59 SW9       29.98R
REDWOOD FALLS  CLEAR     54  38  54 SW13      29.95F
OLIVIA         CLEAR     52  37  58 SW5       29.96R
PIPESTONE      CLEAR     50  39  66 CALM      30.01S
WORTHINGTON    PTCLDY    59  39  47 SW12G18   30.01S
JACKSON        PTCLDY    57  37  47 SW14G21   30.01S
TRACY          CLEAR     55  41  58 SW12      29.99R
SLAYTON        CLEAR     57  39  52 SW12      30.01R
$$
MNZ065>067-074>077-082>085-091>093-170400-
   South Central Minnesota

CITY           SKY/WX    TMP DP  RH WIND       PRES   REMARKS
MANKATO        CLEAR     56  38  50 S8        29.99F
NEW ULM          N/A     55  37  50 SW10      29.97S
ST JAMES       CLOUDY    55  39  54 S9        30.00S
FAIRMONT       PTCLDY    58  39  49 SW12      30.01S
GLENCOE        CLEAR     54  39  57 S5        29.95S
FARIBAULT      CLEAR     54  39  58 S7        30.00S
OWATONNA       CLEAR     55  39  54 S13       30.01F
WASECA         CLEAR     54  37  54 S8        30.02S
ALBERT LEA     CLOUDY    61  39  44 S10       30.04F
$$
MNZ078>079-086>088-094>096-170400-
   Southeast Minnesota

CITY           SKY/WX    TMP DP  RH WIND       PRES   REMARKS
ROCHESTER      CLEAR     53  38  56 S17       30.04F
RED WING       CLEAR     57  34  41 SW6       29.99F
STANTON        CLEAR     57  38  48 S7        29.97F
DODGE CENTER   CLEAR     55  36  47 S14G21    30.02F
WINONA         CLEAR     55  36  47 SW3       30.04F
AUSTIN         PTCLDY    54  37  54 S10       30.05S
PRESTON        CLEAR     54  36  50 S15       30.06F
$$
ABBREVIATIONS USED IN REMARKS
   TC - TEMPERATURES IN CELSIUS
  WCI - WIND CHILL INDEX
   HX - HEAT INDEX
  VSB - VISIBILITY
$$




USA.gov is the U.S. government's official web portal to all federal, state and local government web resources and services.